Regional Weather Roundup
Issued by NWS

Home | Current Version | Previous Version | Text Only | Print | Product List | Glossary Off
Versions: 1 2 3 4 5 6 7 8 9 10 11 12 13 14 15 16 17 18 19 20 21 22 23 24 25 26 27 28 29 30 31 32 33 34 35 36 37 38 39 40 41 42 43 44 45 46 47 48 49 50

000
ASUS43 KIND 301559
RWRIN

WEATHER ROUNDUP FOR INDIANA
NATIONAL WEATHER SERVICE INDIANAPOLIS IN
1200 PM EDT SUN APR 30 2017

NOTE: "FAIR" INDICATES FEW OR NO CLOUDS BELOW 12,000 FEET WITH NO
SIGNIFICANT WEATHER AND/OR OBSTRUCTIONS TO VISIBILITY.

* - STATION DOES NOT REPORT WEATHER SUCH AS PRECIPITATION OR FOG.

+ - STATION NOT QUALITY CONTROLLED BY THE NATIONAL WEATHER SERVICE.
    USE DATA WITH CAUTION...ESPECIALLY DEWPOINT AND RELATIVE
    HUMIDITY OBSERVATIONS.

INZ001>003-010>013-019-020-301700-
NORTHWEST INDIANA

CITY           SKY/WX    TMP DP  RH WIND       PRES   REMARKS
GARY /AIRPORT/ DRIZZLE   52  50  93 CALM      29.79R
MONTICELLO +   MOSUNNY   64  61  88 S15       29.77R
RENSSELAER +   CLOUDY    54  52  94 SE6       29.78R FOG

$$

LMZ046-743>745-301700-
SOUTHERN LAKE MICHIGAN

STATION/POSITION TIME  TEMP    WIND        PRES    WAVE
                       AIR SEA DIR/SP/G            HT
                 (UTC) (F)     (DEG/KT/KT) (MB)    (FT)
BURNS HARBOR     1540   51     110/ 12/ 16 1007.8F
MICHIGAN CITY    1530   49     100/  8/ 11   N/A
5NW MICH CITY    1550   49 48                N/A     3

$$

INZ004-005-014>016-021>024-301700-
NORTH CENTRAL INDIANA

CITY           SKY/WX    TMP DP  RH WIND       PRES   REMARKS
GOSHEN         CLOUDY    53  49  86 E16       29.80F FOG
SOUTH BEND     CLOUDY    48  48 100 E9        29.80F

$$

INZ006>009-017-018-025>027-301700-
NORTHEAST INDIANA

CITY           SKY/WX    TMP DP  RH WIND       PRES   REMARKS
ANGOLA *+      CLOUDY    48  39  71 SE12      29.85F
FORT WAYNE     CLOUDY    56  54  93 E10       29.84F FOG
KENDALLVILLE + CLOUDY    50  50 100 E9        29.85R FOG

$$

INZ028-029-035-036-043>045-051>053-301700-
WEST CENTRAL INDIANA

CITY           SKY/WX    TMP DP  RH WIND       PRES   REMARKS
CRAWFORDSVL +  DRIZZLE   64  64 100 S18G28    29.81R
GREENCASTLE +  CLOUDY    64  63  94 S10       29.84F
LAFAYETTE      LGT RAIN  65  63  93 S9        29.77R
TERRE HAUTE    LGT RAIN  66  63  90 S14       29.82F

$$

INZ030>032-037>040-046>048-054>057-064-065-301700-
CENTRAL INDIANA

CITY           SKY/WX    TMP DP  RH WIND       PRES   REMARKS
COLUMBUS       SUNNY     72  63  73 S14       29.89S
INDIANAPOLIS   LGT RAIN  68  64  87 S17       29.85R
-EAGLE CREEK   CLOUDY    69  62  78 S10G22    29.85R
KOKOMO +       CLOUDY    70  63  78 S26G35    29.81R
SHELBYVILLE    CLOUDY    73  63  70 S17G25    29.87R

$$

INZ033-034-041-042-049-050-058-059-301700-
EAST CENTRAL INDIANA

CITY           SKY/WX    TMP DP  RH WIND       PRES   REMARKS
MUNCIE         CLOUDY    73  63  70 S15G29    29.84R
RICHMOND +     CLOUDY    70  64  83 S20       29.93R

$$

INZ060-061-067>069-081>083-085>088-301700-
SOUTHWEST INDIANA

CITY           SKY/WX    TMP DP  RH WIND       PRES   REMARKS
EVANSVILLE     LGT RAIN  66  64  93 S7        29.84F

$$

INZ062-063-066-070>080-084-089>092-301700-
SOUTH CENTRAL AND SOUTHEAST INDIANA

CITY           SKY/WX    TMP DP  RH WIND       PRES   REMARKS
BLOOMINGTON    LGT RAIN  67  63  87 S8        29.86F
MADISON *+     CLOUDY    72  61  68 S12G18    29.95R
SEYMOUR +      CLOUDY    73  64  73 S12       29.91R

$$





USA.gov is the U.S. government's official web portal to all federal, state and local government web resources and services.